Watertown, NY

10:49 PM EDT on March 24, 2017 (GMT -0400)
Watertown International

Weather History for KART - October, 2012

Change the Weather History Date:

Tuesday, October 30, 2012

  Actual Average Record
Temperature  
Mean Temperature 57 °F 44 °F  
Max Temperature 64 °F 53 °F 74 °F (1999)
Min Temperature 49 °F 35 °F 16 °F (1966)
Degree Days  
Heating Degree Days 8 21  
Month to date heating degree days 347 502  
Since 1 July heating degree days 533 776  
Cooling Degree Days 0 0  
Month to date cooling degree days 1 0  
Year to date cooling degree days 607 359  
Growing Degree Days 9 (Base 50)    
Moisture  
Dew Point 49 °F    
Average Humidity 72    
Maximum Humidity 93    
Minimum Humidity 51    
Precipitation  
Precipitation 0.03 in 0.11 in 0.60 in (1955)
Month to date precipitation 2.65 3.54  
Year to date precipitation 28.71 29.06  
Sea Level Pressure  
Sea Level Pressure 29.30 in    
Wind  
Wind Speed 12 mph (East)    
Max Wind Speed 37 mph    
Max Gust Speed 46 mph    
Visibility 10 miles    
Events Rain    
T = Trace of Precipitation, MM = Missing Value Source: NWS Daily Summary

Daily Weather History Graph

Daily Weather History Graph

Search for Another Location

Airport or City:

Trip Planner

Search our weather history database for the weather conditions in past years. The results will help you decide how hot, cold, wet, or windy it might be!

Date:

Astronomy

Oct. 30, 2012 Rise Set
Actual Time 7:38 AM EDT 5:56 PM EDT
Civil Twilight 7:08 AM EDT 6:26 PM EDT
Nautical Twilight 6:34 AM EDT 7:00 PM EDT
Astronomical Twilight 6:00 AM EDT 7:33 PM EDT
Moon 6:21 PM EDT (10/30) 8:25 AM EDT (10/30)
Length of Visible Light 11h 17m
Length of Day
10h 17m
Full, 99% of the Moon is Illuminated
Oct 30
Full
Nov 6
Last Quarter
Nov 13
New
Nov 20
First Quarter
Nov 28
Full

Hourly Weather History & Observations

Time (EDT) Temp. Dew Point Humidity Pressure Visibility Wind Dir Wind Speed Gust Speed Precip Events Conditions
12:38 AM 57.2 °F 51.8 °F 82% 29.20 in 10.0 mi NNE 33.4 mph 41.4 mph 0.00 in   Mostly Cloudy
12:56 AM 57.9 °F 51.1 °F 78% 29.19 in 10.0 mi NNE 29.9 mph 46.0 mph 0.00 in   Overcast
1:16 AM 57.2 °F 51.8 °F 82% 29.19 in 10.0 mi NE 28.8 mph 46.0 mph N/A   Overcast
1:56 AM 57.2 °F 51.8 °F 82% 29.18 in 10.0 mi NE 32.2 mph 44.9 mph N/A   Overcast
2:56 AM 57.0 °F 53.1 °F 87% 29.20 in 10.0 mi East 19.6 mph 46.0 mph 0.00 in   Overcast
3:18 AM 57.2 °F 53.6 °F 88% 29.21 in 9.0 mi East 11.5 mph 33.4 mph 0.00 in Rain Light Rain
3:56 AM 57.0 °F 54.0 °F 89% 29.21 in 10.0 mi East 15.0 mph 38.0 mph 0.01 in Rain Light Rain
4:56 AM 55.9 °F 54.0 °F 93% 29.22 in 10.0 mi ENE 16.1 mph 24.2 mph 0.00 in   Mostly Cloudy
5:56 AM 55.9 °F 53.1 °F 90% 29.23 in 10.0 mi NE 12.7 mph - N/A   Scattered Clouds
6:56 AM 55.9 °F 54.0 °F 93% 29.24 in 10.0 mi ENE 12.7 mph - 0.00 in Rain Light Rain
7:56 AM 55.9 °F 53.1 °F 90% 29.26 in 10.0 mi ENE 11.5 mph - 0.00 in   Partly Cloudy
8:56 AM 59.0 °F 52.0 °F 78% 29.27 in 10.0 mi NE 11.5 mph - N/A   Partly Cloudy
9:56 AM 63.0 °F 48.9 °F 60% 29.29 in 10.0 mi East 8.1 mph - N/A   Partly Cloudy
10:56 AM 64.0 °F 48.0 °F 56% 29.30 in 10.0 mi ESE 9.2 mph 23.0 mph N/A   Overcast
11:56 AM 63.0 °F 48.0 °F 58% 29.31 in 10.0 mi ESE 11.5 mph 19.6 mph N/A   Overcast
12:56 PM 64.0 °F 46.9 °F 54% 29.30 in 10.0 mi ESE 9.2 mph 19.6 mph 0.00 in   Mostly Cloudy
1:56 PM 62.1 °F 46.9 °F 58% 29.31 in 10.0 mi SE 13.8 mph 27.6 mph 0.00 in Rain Light Rain
2:56 PM 63.0 °F 43.0 °F 48% 29.32 in 10.0 mi SE 15.0 mph 26.5 mph 0.00 in   Mostly Cloudy
3:56 PM 63.0 °F 44.1 °F 50% 29.34 in 10.0 mi ESE 12.7 mph 23.0 mph N/A   Mostly Cloudy
4:56 PM 62.1 °F 44.1 °F 52% 29.36 in 10.0 mi ESE 9.2 mph 17.3 mph N/A   Overcast
5:56 PM 60.1 °F 42.1 °F 51% 29.37 in 10.0 mi ESE 13.8 mph 19.6 mph N/A   Mostly Cloudy
6:56 PM 57.9 °F 43.0 °F 58% 29.40 in 10.0 mi ESE 6.9 mph 16.1 mph N/A   Partly Cloudy
7:56 PM 59.0 °F 43.0 °F 55% 29.40 in 10.0 mi East 8.1 mph - N/A   Clear
8:56 PM 57.9 °F 44.1 °F 60% 29.41 in 10.0 mi ESE 8.1 mph - N/A   Partly Cloudy
9:56 PM 57.9 °F 43.0 °F 58% 29.42 in 10.0 mi ESE 9.2 mph 19.6 mph N/A   Mostly Cloudy
10:56 PM 54.0 °F 48.0 °F 80% 29.42 in 10.0 mi WSW 6.9 mph - N/A   Overcast
11:56 PM 51.8 °F 48.2 °F 88% 29.43 in 10.0 mi WSW 8.1 mph - N/A   Overcast